Weather in Beloye Ozero

Russia / Republic of Bashkortostan     53°59′39″N   56°13′55″E
temp.,
°C
wind,
m/s
gust,
m/s
humid.,
%
clouds,
%
prec.,
mm/h
press.,
hPa
HPBL,
m
28 february, sun
sun2823:00−9se399497 0.4 1003263
02:00−7se3896100 0.8 1001270
05:00−7se2796100 1.8 1000233
08:00−6se3796100 1.1 999238
11:00−4se3596100 1.8 999263
14:00−1se3498100 0.4 1000346
17:000ne1299100 1.3 1001149
20:00−6nnw5894100 1.2 1004238
1 march, mon
mon123:00−9nw249698 1.6 1007112
02:00−11wsw239698 0.5 100983
05:00−12w229697 0.8 101143
08:00−14w229698 0.2 101356
11:00−12wnw239199 0.3 1015314
14:00−10wnw2389100 0.3 1015437
17:00−11wnw3491100 0.5 1017398
20:00−14nw239699 0.3 101866
2 march, tue
tue223:00−17nw129695 0.3 101920
02:00−20w229999 0.1 101920
05:00−20ssw229999 0.1 101924
08:00−21ssw3599100 0.0 101897
11:00−18s6109599 0.1 1016340
14:00−15ssw7129197 0.0 1013423
17:00−13ssw9149098 0.0 1012508
20:00−14ssw81594100 0.4 1010563
3 march, wed
wed323:00−14s81593100 1.1 1009555
02:00−12s71494100 0.6 1006521
05:00−9s71493100 1.3 1004522
08:00−6s61291100 0.2 1001436
11:00−2ssw61094100 0.4 1000693
14:00−1ssw5897100 0.7 999655
17:00−1wsw4696100 1.3 998448
20:00−4wnw61092100 0.4 999406
4 march, thu
thu423:00−6w41094100 0.6 1001427
02:00−7wnw51094100 0.6 1002453
05:00−8wnw3895100 0.8 1004274
08:00−9wnw5994100 0.3 1006344
11:00−11nw589298 0.4 1008349
14:00−8wnw4789100 0.1 1009601
17:00−8wnw5788100 0.2 1011665
20:00−13w349458 0.0 101339